Wind_Speed
57 60 61 60 59 63 67 67 57 23 34 40 36 31 31 33 28 26 19 17 31 19 20 18 16 21 18 14 13 13 10 11 10 13 12 13 15 17 16 15 12 8 6 5 4 7 8 7 8 11 12 14 12 13
56 59 61 60 59 61 67 69 61 37 13 45 46 39 33 34 30 23 23 23 23 26 24 21 19 16 16 14 13 15 13 15 11 13 11 17 14 16 19 18 16 13 9 6 6 6 6 8 9 9 9 9 8 8
55 58 60 60 58 60 66 68 62 38 12 30 50 44 42 38 29 29 26 29 23 21 19 23 19 20 18 16 14 15 13 11 8 7 11 18 16 15 16 17 16 17 15 15 13 9 9 8 7 5 6 7 9 10
54 58 58 59 58 59 64 68 65 37 18 17 45 46 45 41 32 36 31 26 26 20 17 23 20 18 18 17 14 15 14 8 9 12 11 17 17 19 14 14 18 16 16 17 17 13 13 10 7 5 4 5 5 7
53 56 57 58 58 58 63 67 68 42 24 13 43 49 48 41 33 34 32 28 27 25 17 21 25 19 17 16 14 16 15 18 13 13 15 16 18 17 20 17 16 17 16 17 18 16 16 12 6 3 7 4 3 5
50 54 56 57 57 60 63 67 70 50 24 14 29 55 50 43 40 37 33 32 27 26 20 21 23 21 18 15 14 12 10 15 14 12 13 17 16 19 24 19 18 20 15 14 16 18 17 12 9 9 9 7 7 8
48 52 53 55 55 58 64 68 72 58 29 17 26 48 56 47 46 41 34 30 24 23 23 24 25 21 17 16 16 12 11 13 13 13 12 12 19 18 16 18 25 27 20 15 14 17 17 16 16 14 11 9 9 10
46 50 51 53 52 56 62 69 73 63 37 16 26 51 56 51 47 43 38 32 25 21 25 27 21 19 19 18 17 16 11 12 12 12 16 15 15 14 15 19 22 22 19 20 22 21 21 20 19 20 18 13 12 10
44 47 49 52 51 53 60 68 72 65 38 14 23 52 57 52 48 43 38 35 29 23 26 27 23 21 20 18 20 14 11 9 14 14 16 15 11 9 13 13 12 13 15 19 24 24 22 20 18 18 20 20 16 14
42 44 47 50 49 51 56 66 70 62 34 11 22 52 57 56 48 40 38 36 31 24 23 23 27 24 24 22 21 14 9 9 10 17 19 13 10 14 13 11 11 13 9 10 13 16 14 13 12 10 12 13 14 14
39 41 44 46 46 47 52 62 66 57 32 8 26 49 53 53 48 41 40 37 31 22 16 19 26 27 28 25 22 18 10 11 10 13 16 15 12 16 11 14 12 11 9 5 7 12 12 9 8 9 12 12 14 15
36 38 38 42 42 43 47 55 62 53 26 1 32 46 48 46 39 41 44 39 32 24 15 17 19 25 28 29 28 22 17 13 11 11 12 15 14 15 12 13 11 12 12 10 10 10 10 10 11 11 11 13 15 17
33 35 34 39 39 38 41 47 57 50 21 7 35 42 45 47 39 40 43 41 35 23 18 18 19 19 23 26 28 27 24 17 13 11 13 16 14 15 14 16 13 13 14 15 15 14 13 12 13 13 13 15 17 20
30 30 31 34 36 35 37 40 48 48 17 13 35 41 51 51 48 46 43 39 34 28 23 13 18 22 23 24 26 26 25 22 16 11 15 16 16 15 14 13 14 15 16 17 19 20 19 18 18 19 19 21 23 24
29 27 28 31 33 33 32 34 39 44 25 9 32 40 51 52 51 46 42 38 37 32 26 19 13 14 22 25 27 29 26 25 19 17 19 17 16 16 18 19 17 16 16 19 22 22 23 24 25 24 24 24 24 25
27 25 26 28 29 29 28 29 31 36 31 6 26 40 42 44 46 43 40 40 40 37 35 28 22 20 20 24 25 25 26 27 23 22 23 22 21 21 17 15 16 18 19 19 19 20 22 24 25 25 23 24 25 25
26 22 23 26 26 25 25 25 25 29 30 19 16 31 40 42 44 42 44 38 38 45 42 35 30 27 24 24 22 22 21 25 27 29 29 26 23 24 21 20 18 17 17 18 20 22 22 22 22 23 24 25 25 25
25 22 22 23 25 25 22 21 21 24 25 23 13 22 38 43 45 47 47 51 50 47 45 48 44 39 33 26 22 19 18 26 30 32 33 31 29 25 25 27 24 21 21 22 23 22 22 23 23 23 23 24 24 25
24 23 22 22 25 25 21 17 20 19 22 23 20 13 25 41 46 47 51 55 57 54 51 48 48 44 39 31 28 26 25 29 31 32 31 29 29 29 28 26 25 25 24 24 24 24 24 24 24 23 24 24 24 25
24 24 23 23 25 27 23 19 21 18 22 25 25 21 18 34 50 51 48 52 52 50 49 53 47 44 45 42 34 32 27 27 32 35 34 32 33 31 29 28 28 27 28 29 28 28 27 26 26 25 25 25 26 27
27 25 26 25 26 28 26 24 26 22 24 29 30 29 24 25 37 56 54 48 50 55 55 53 50 47 47 49 43 39 34 32 32 33 34 34 34 36 32 31 31 29 29 30 29 29 29 29 28 28 28 28 28 26
25 27 27 28 27 27 27 28 28 27 29 34 35 37 33 29 34 43 62 67 56 48 51 54 51 50 54 52 47 42 40 35 34 37 36 35 35 33 32 32 33 31 30 30 31 31 31 29 28 27 26 25 24 24
25 28 28 28 29 30 27 31 31 29 35 37 40 41 41 36 33 40 47 61 69 60 56 57 55 58 57 50 45 44 43 37 33 33 34 34 34 34 33 31 31 30 28 30 30 30 29 27 27 27 27 27 27 28
25 28 29 29 30 29 33 31 29 34 38 43 46 46 44 41 37 35 39 45 57 70 63 61 62 62 57 53 47 45 46 43 39 34 36 34 34 35 36 35 33 31 30 30 30 30 30 29 28 29 28 29 28 28
27 29 29 30 31 34 29 28 35 39 43 46 48 48 45 42 36 32 33 34 40 59 76 66 67 68 71 58 56 53 49 52 45 41 34 35 37 36 33 33 33 32 30 27 27 29 30 30 30 29 28 26 23 27
28 28 26 30 30 26 30 35 39 43 47 49 49 47 44 39 33 30 28 31 34 41 59 79 70 59 64 61 52 53 55 53 50 44 38 33 35 37 32 29 27 27 27 28 29 29 30 29 28 27 27 25 29 34
27 28 30 32 27 31 36 39 43 47 49 49 47 44 41 35 28 25 28 27 28 35 42 58 80 71 57 57 54 53 50 49 50 50 43 38 34 34 35 31 31 32 36 32 30 31 31 31 32 31 31 32 36 38
28 33 32 28 29 35 38 41 45 46 48 47 44 40 33 27 25 26 27 27 26 31 37 40 48 77 70 57 56 55 58 52 51 49 46 41 40 37 35 34 40 40 37 36 37 38 37 38 34 34 37 39 41 41
29 26 25 27 33 37 39 43 44 45 46 44 40 34 25 23 25 27 28 26 25 28 35 36 34 42 62 68 57 54 55 48 46 48 47 46 44 43 40 39 40 40 47 46 42 42 42 37 37 38 37 37 37 36
24 26 28 32 35 37 41 43 43 44 42 38 35 26 21 24 27 28 26 24 23 25 31 32 28 33 41 47 56 46 51 51 46 45 45 44 42 40 40 40 39 38 38 42 45 41 39 37 36 35 34 34 34 33
25 29 32 33 35 39 42 42 42 40 37 33 27 20 20 24 27 25 20 18 18 22 24 25 21 26 37 42 41 39 37 45 40 39 39 39 39 40 41 41 41 40 38 37 37 37 37 36 34 32 33 33 32 31
29 32 32 32 36 40 40 40 39 36 33 27 21 18 20 23 22 18 14 11 11 15 18 19 16 20 26 32 40 43 45 42 44 41 41 42 43 44 46 45 44 43 41 40 39 38 36 34 33 34 32 31 29 29
31 31 30 34 38 38 38 38 37 35 31 24 19 17 18 19 17 11 9 11 10 11 13 12 10 15 20 27 33 40 44 42 43 44 40 41 43 44 43 42 41 39 36 34 33 33 33 33 31 28 26 26 26 27
Wind_Direction
342 344 347 348 349 351 352 355 348 334 221 217 213 207 197 191 199 204 226 195 193 196 194 195 199 213 200 213 227 244 257 249 248 245 254 243 223 215 214 205 197 203 193 178 160 139 138 141 140 147 153 156 162 167
340 342 346 347 347 350 350 354 350 341 280 218 213 210 204 201 205 209 209 198 185 198 204 211 223 220 197 214 231 237 264 248 271 239 248 222 221 213 210 205 206 217 221 235 193 184 171 158 165 175 185 197 208 215
338 339 345 345 345 349 349 352 353 345 287 223 216 213 208 205 200 193 194 205 210 206 211 215 219 211 211 220 233 236 258 275 257 239 217 214 213 216 216 216 210 212 217 224 222 226 208 177 167 168 176 199 211 215
335 336 342 344 344 348 348 350 354 344 327 244 215 214 199 203 199 195 203 199 194 205 223 218 213 208 213 223 238 238 246 280 279 279 237 211 209 212 212 215 212 213 214 219 222 211 210 199 195 163 148 146 184 211
332 334 340 343 342 347 348 347 350 347 332 260 218 212 204 199 201 196 199 201 207 212 223 224 221 220 221 230 243 243 252 253 273 266 218 203 208 222 220 220 210 211 219 217 220 212 208 208 201 200 199 231 218 212
329 332 339 340 342 345 347 347 348 350 326 281 218 214 207 199 196 197 201 204 206 212 227 219 216 220 223 233 237 254 255 264 245 251 220 216 207 211 215 222 220 223 222 227 223 212 217 221 221 202 203 246 259 258
327 331 338 340 342 344 347 347 347 349 335 286 215 208 207 201 192 196 201 199 204 219 229 219 213 219 221 233 237 246 249 252 237 239 214 219 225 234 221 220 226 224 222 235 242 232 235 238 233 229 232 233 274 275
326 330 338 339 342 344 346 347 346 347 339 292 212 195 200 196 195 197 199 204 213 225 219 214 216 219 227 239 252 251 242 240 232 227 211 212 225 241 232 223 226 235 237 237 241 240 240 243 252 245 238 250 275 247
323 329 336 338 342 345 348 348 348 346 342 305 203 189 188 190 194 198 200 202 207 219 223 215 213 214 226 236 246 257 238 242 224 223 215 211 224 224 214 221 217 215 227 231 234 238 245 253 258 240 237 239 240 249
320 329 335 337 341 346 350 351 350 347 344 314 192 185 183 186 189 196 196 203 209 218 223 217 215 214 225 233 241 247 234 242 239 223 218 219 228 212 207 213 203 202 234 241 229 216 217 229 224 223 232 231 230 223
319 327 333 337 341 347 352 354 354 350 345 328 180 178 175 179 190 198 202 204 207 212 223 215 210 215 225 230 238 241 241 233 240 228 224 225 227 207 213 212 216 228 225 240 190 196 214 213 221 230 227 219 218 231
317 324 333 338 340 347 353 356 357 353 348 268 171 167 167 168 181 200 206 207 210 220 217 198 210 216 220 229 236 243 245 239 237 242 235 228 220 218 222 216 226 218 221 228 211 202 211 222 232 241 242 243 247 257
315 322 331 338 339 346 353 357 360 357 353 173 171 168 165 172 172 192 208 207 212 215 200 211 214 219 220 229 235 236 241 242 243 244 245 240 231 235 239 233 235 228 227 222 221 223 226 232 239 248 254 262 269 273
312 319 328 336 338 342 353 355 1 1 353 184 182 176 173 182 191 195 206 207 207 205 215 216 227 222 217 223 227 229 234 239 241 247 249 250 238 228 237 231 228 223 225 233 233 234 238 244 248 254 261 273 276 277
309 314 325 332 337 338 350 355 1 2 358 206 190 188 189 195 198 204 212 217 212 213 214 215 226 228 228 231 229 228 230 235 234 242 245 250 249 238 232 236 236 232 229 229 233 239 244 249 254 260 264 268 270 273
304 310 319 326 334 333 344 354 357 4 0 279 206 206 204 205 204 210 215 220 218 215 222 223 232 239 235 233 237 237 239 240 237 239 243 243 243 247 246 236 235 236 239 242 242 244 249 253 258 262 266 269 271 274
296 305 312 320 328 329 336 348 348 358 2 353 226 217 216 218 221 220 219 223 225 218 221 229 233 235 240 237 239 244 247 233 233 237 243 246 245 245 247 246 243 241 241 244 247 248 251 255 256 258 261 266 270 272
292 300 304 314 322 322 326 339 337 342 353 354 330 234 223 222 221 224 225 228 232 233 233 234 239 242 238 239 241 244 221 218 230 236 239 239 242 245 249 249 246 242 240 243 247 251 255 257 258 260 262 266 268 271
287 292 295 305 314 317 317 324 325 321 337 342 340 300 243 231 229 229 229 231 232 233 236 239 240 241 234 238 240 247 241 235 235 239 242 244 243 239 241 242 245 243 243 245 247 251 254 257 260 262 264 266 268 271
284 285 289 297 306 313 310 312 318 299 323 328 328 317 283 236 233 231 227 229 232 235 237 236 236 238 235 235 246 247 249 246 243 244 246 248 247 243 240 239 243 245 246 246 250 252 255 257 258 260 263 265 267 270
282 283 285 291 301 309 309 308 316 298 306 318 317 317 301 273 243 233 229 231 231 236 238 238 234 235 233 235 244 242 241 241 245 247 246 245 245 241 240 239 243 248 248 248 249 252 255 259 263 263 264 266 266 265
279 281 285 292 300 307 306 306 312 302 304 310 312 312 309 287 264 243 233 233 231 230 233 231 228 231 233 238 241 240 243 244 243 243 245 241 242 241 241 244 245 246 248 249 250 253 257 258 259 260 258 257 258 262
275 279 284 291 301 305 303 307 305 302 306 308 309 310 308 300 277 256 244 235 231 231 231 226 227 234 234 236 238 240 242 240 237 238 240 240 239 237 239 245 248 248 247 243 247 252 256 256 254 254 254 256 261 269
275 280 285 295 302 301 308 304 301 305 308 309 310 310 308 301 289 270 255 244 235 222 220 221 224 219 224 226 222 222 236 237 236 240 240 239 237 238 241 244 247 247 246 247 248 251 252 253 254 255 257 263 269 273
274 279 291 300 300 306 302 303 306 307 309 310 311 310 307 301 292 276 263 254 245 232 223 219 217 220 219 222 226 228 236 238 236 237 238 239 237 239 240 244 246 246 244 246 246 247 249 250 253 258 263 264 269 273
275 288 296 304 302 299 303 307 307 309 311 311 312 310 306 301 291 276 262 264 255 241 229 225 226 216 222 213 218 220 220 231 238 232 233 238 238 236 237 239 241 240 244 242 239 242 246 250 256 261 264 265 270 272
281 286 300 304 300 303 307 307 309 311 312 311 312 309 304 298 287 274 270 271 265 248 236 228 225 224 218 216 212 213 215 222 232 231 231 236 237 237 236 239 242 238 237 236 237 244 252 258 261 263 258 263 268 270
285 299 300 296 298 302 304 307 310 312 311 311 311 308 303 292 285 283 280 273 267 247 237 231 230 225 221 219 214 213 215 218 218 226 231 234 237 240 243 242 238 237 232 234 236 241 249 255 255 255 256 259 264 269
291 295 299 298 298 299 304 309 312 312 311 311 310 305 297 290 291 296 288 277 268 245 231 228 228 228 225 222 220 219 218 225 230 233 236 233 231 232 234 238 239 243 239 236 237 241 243 243 247 251 255 259 264 272
291 295 299 298 298 302 308 312 312 312 312 309 305 299 294 299 304 302 292 279 264 239 224 224 229 228 217 224 223 218 218 221 224 224 226 225 226 231 237 240 247 252 251 243 235 233 238 244 250 253 258 262 270 277
294 298 299 298 301 306 310 311 312 314 311 307 302 297 301 309 312 306 292 275 252 223 217 220 228 227 213 204 211 213 216 212 219 222 227 231 232 233 233 233 233 234 235 234 236 239 242 247 251 255 263 268 269 273
296 297 297 300 305 308 309 311 314 314 312 304 296 297 310 317 318 303 286 237 214 211 212 214 224 206 209 214 208 207 210 210 211 211 215 216 219 224 223 222 224 223 223 226 229 234 239 244 250 257 260 264 270 277
294 294 297 302 307 309 310 313 314 312 307 296 289 291 309 321 323 301 235 197 204 203 202 206 199 195 198 201 205 207 211 215 216 214 217 215 217 220 220 220 221 222 223 226 231 237 243 248 251 254 260 270 278 287
Height
5575 5564 5551 5539 5529 5518 5507 5497 5485 5478 5476 5480 5484 5490 5495 5498 5501 5504 5508 5512 5517 5521 5525 5530 5534 5538 5542 5546 5549 5551 5554 5555 5557 5558 5560 5563 5566 5570 5572 5573 5575 5576 5576 5576 5576 5576 5579 5579 5580 5581 5582 5583 5584 5586
5571 5561 5548 5536 5525 5514 5502 5491 5478 5468 5466 5469 5475 5483 5491 5495 5499 5503 5507 5511 5516 5521 5526 5529 5532 5536 5539 5544 5547 5548 5550 5551 5554 5556 5557 5558 5562 5566 5568 5571 5573 5574 5574 5575 5577 5578 5577 5579 5581 5582 5584 5585 5585 5587
5566 5556 5545 5533 5521 5510 5498 5486 5473 5461 5459 5461 5467 5475 5484 5491 5496 5501 5506 5512 5516 5520 5524 5527 5531 5534 5537 5541 5544 5547 5548 5549 5549 5552 5554 5555 5558 5562 5564 5567 5570 5571 5572 5573 5575 5576 5577 5578 5579 5581 5582 5583 5585 5587
5561 5551 5540 5529 5518 5507 5495 5482 5471 5459 5453 5454 5459 5469 5478 5486 5492 5497 5504 5510 5514 5519 5522 5526 5529 5532 5535 5538 5542 5544 5545 5545 5547 5548 5550 5553 5556 5559 5562 5564 5567 5569 5570 5571 5573 5575 5576 5576 5578 5579 5580 5582 5583 5586
5557 5546 5536 5524 5513 5504 5492 5478 5467 5456 5448 5448 5453 5461 5472 5481 5487 5494 5501 5507 5511 5517 5519 5522 5527 5530 5533 5536 5539 5541 5542 5543 5544 5545 5548 5551 5554 5556 5558 5562 5565 5566 5567 5569 5570 5573 5574 5576 5577 5578 5580 5581 5582 5583
5551 5542 5531 5520 5508 5498 5487 5473 5460 5450 5442 5439 5442 5452 5465 5475 5483 5488 5496 5502 5509 5513 5516 5520 5525 5528 5531 5534 5536 5538 5539 5540 5541 5542 5545 5549 5551 5554 5555 5560 5563 5563 5563 5565 5568 5570 5573 5575 5576 5577 5578 5579 5580 5581
5546 5537 5527 5516 5503 5493 5481 5467 5452 5441 5433 5427 5431 5441 5456 5469 5477 5485 5494 5502 5505 5509 5513 5517 5521 5526 5530 5532 5534 5536 5536 5537 5538 5539 5542 5545 5550 5551 5554 5557 5557 5559 5561 5563 5565 5569 5571 5573 5574 5575 5577 5578 5579 5580
5541 5533 5522 5512 5500 5489 5476 5461 5444 5432 5421 5415 5418 5429 5446 5462 5473 5481 5490 5497 5502 5506 5510 5514 5520 5525 5528 5530 5532 5533 5534 5535 5536 5537 5539 5543 5546 5548 5550 5551 5553 5556 5559 5561 5562 5565 5567 5570 5572 5573 5574 5575 5577 5578
5536 5528 5518 5508 5497 5485 5472 5457 5439 5424 5412 5407 5409 5419 5437 5454 5467 5477 5485 5491 5498 5504 5506 5512 5517 5521 5524 5527 5529 5531 5532 5533 5534 5536 5538 5541 5543 5545 5547 5549 5550 5552 5554 5556 5558 5561 5563 5565 5565 5566 5568 5571 5573 5575
5531 5523 5514 5505 5494 5483 5470 5456 5437 5420 5409 5404 5406 5416 5430 5448 5465 5474 5482 5488 5495 5498 5503 5509 5513 5518 5521 5524 5526 5529 5529 5530 5532 5534 5536 5539 5542 5543 5545 5547 5549 5551 5553 5553 5554 5557 5560 5562 5563 5564 5566 5568 5570 5572
5525 5519 5510 5501 5492 5481 5470 5456 5439 5422 5410 5405 5407 5418 5436 5450 5462 5471 5477 5485 5491 5497 5503 5506 5509 5513 5517 5521 5524 5527 5527 5529 5530 5532 5534 5537 5539 5542 5544 5546 5548 5550 5551 5552 5553 5555 5557 5560 5561 5562 5564 5566 5568 5570
5519 5514 5506 5498 5491 5481 5471 5459 5444 5427 5417 5414 5417 5427 5439 5454 5462 5468 5474 5483 5489 5495 5501 5504 5506 5509 5513 5516 5520 5524 5525 5527 5528 5530 5532 5533 5537 5539 5541 5544 5546 5547 5549 5551 5552 5554 5556 5558 5560 5561 5563 5564 5566 5568
5513 5509 5503 5495 5489 5480 5472 5462 5449 5435 5427 5425 5429 5437 5445 5455 5459 5465 5472 5480 5486 5493 5499 5500 5501 5504 5508 5513 5516 5520 5522 5525 5526 5528 5529 5529 5533 5536 5538 5540 5542 5544 5547 5548 5550 5552 5554 5556 5558 5560 5561 5562 5563 5564
5507 5504 5498 5492 5487 5480 5473 5465 5455 5443 5435 5435 5438 5443 5449 5454 5455 5462 5469 5477 5484 5490 5493 5496 5498 5501 5503 5507 5510 5514 5518 5521 5523 5525 5525 5526 5529 5533 5535 5537 5539 5540 5543 5545 5547 5549 5551 5553 5554 5555 5557 5557 5557 5557
5501 5497 5493 5488 5483 5478 5472 5466 5459 5449 5443 5441 5443 5446 5448 5451 5456 5464 5470 5475 5482 5487 5490 5492 5495 5498 5500 5502 5505 5509 5513 5515 5520 5521 5522 5522 5524 5527 5530 5531 5534 5536 5538 5540 5542 5544 5545 5547 5549 5550 5550 5550 5550 5551
5494 5491 5487 5483 5480 5476 5470 5466 5462 5455 5447 5444 5445 5449 5451 5454 5459 5463 5467 5471 5476 5482 5485 5488 5490 5493 5495 5497 5501 5504 5508 5513 5516 5516 5516 5518 5520 5522 5524 5526 5528 5530 5533 5535 5536 5538 5539 5540 5541 5542 5543 5544 5544 5544
5486 5484 5481 5478 5475 5472 5467 5463 5461 5456 5452 5446 5444 5445 5449 5453 5456 5460 5464 5467 5470 5475 5479 5481 5485 5488 5490 5492 5496 5499 5503 5508 5507 5508 5510 5512 5515 5518 5519 5521 5523 5525 5526 5528 5530 5531 5533 5534 5535 5536 5537 5537 5537 5537
5478 5475 5473 5471 5470 5467 5463 5460 5458 5455 5451 5448 5444 5443 5444 5448 5450 5454 5457 5460 5464 5467 5471 5474 5479 5482 5486 5488 5493 5493 5493 5495 5497 5499 5501 5505 5508 5511 5513 5516 5517 5519 5521 5522 5524 5525 5527 5528 5529 5530 5530 5530 5531 5531
5469 5467 5465 5464 5462 5461 5457 5456 5454 5451 5448 5445 5442 5440 5440 5441 5443 5446 5447 5450 5453 5457 5461 5464 5468 5475 5480 5482 5484 5485 5487 5488 5490 5492 5495 5498 5500 5503 5506 5509 5511 5513 5515 5516 5518 5519 5520 5521 5522 5523 5523 5524 5524 5525
5460 5458 5457 5455 5454 5453 5450 5448 5447 5445 5442 5440 5437 5434 5432 5431 5433 5435 5436 5438 5441 5443 5446 5451 5461 5465 5468 5471 5475 5476 5479 5481 5483 5485 5487 5490 5493 5497 5500 5502 5504 5506 5508 5510 5511 5513 5514 5515 5516 5516 5517 5518 5518 5518
5450 5449 5448 5447 5444 5442 5440 5439 5437 5436 5434 5431 5428 5426 5423 5420 5418 5420 5423 5424 5427 5429 5434 5440 5447 5451 5454 5459 5463 5466 5469 5472 5474 5476 5479 5481 5483 5487 5491 5494 5496 5499 5500 5502 5504 5505 5507 5508 5509 5509 5510 5510 5511 5510
5440 5440 5438 5437 5435 5433 5431 5428 5426 5424 5423 5419 5416 5412 5410 5406 5402 5401 5402 5406 5410 5416 5419 5425 5430 5435 5441 5446 5449 5454 5458 5462 5464 5467 5469 5472 5474 5477 5481 5484 5487 5489 5491 5493 5495 5497 5498 5499 5500 5501 5502 5502 5503 5504
5430 5431 5430 5428 5426 5422 5422 5418 5415 5413 5410 5406 5403 5398 5394 5390 5387 5383 5382 5384 5390 5397 5403 5407 5411 5417 5424 5430 5436 5441 5446 5450 5454 5457 5459 5462 5465 5468 5472 5474 5477 5480 5482 5483 5486 5488 5489 5491 5492 5493 5494 5495 5496 5497
5421 5420 5420 5418 5416 5412 5409 5406 5404 5402 5398 5392 5387 5381 5377 5372 5368 5365 5365 5366 5367 5374 5380 5387 5393 5398 5405 5412 5420 5426 5432 5438 5443 5447 5450 5453 5456 5459 5462 5464 5467 5470 5472 5474 5477 5479 5481 5483 5484 5486 5487 5488 5489 5490
5412 5411 5409 5407 5404 5402 5398 5396 5392 5388 5384 5378 5372 5365 5359 5354 5351 5349 5349 5348 5347 5351 5359 5365 5373 5382 5388 5396 5403 5410 5417 5424 5430 5436 5440 5443 5446 5449 5452 5454 5457 5460 5463 5466 5469 5471 5473 5475 5477 5479 5480 5481 5482 5482
5400 5400 5399 5397 5393 5390 5388 5385 5381 5376 5370 5363 5357 5350 5344 5340 5336 5335 5336 5334 5333 5335 5340 5348 5353 5363 5371 5380 5388 5396 5403 5410 5417 5425 5430 5433 5436 5440 5443 5446 5449 5452 5455 5457 5460 5463 5465 5467 5469 5471 5472 5473 5473 5472
5391 5389 5388 5385 5382 5380 5377 5373 5368 5363 5356 5350 5344 5337 5332 5327 5325 5324 5322 5322 5322 5322 5324 5330 5339 5346 5356 5366 5374 5382 5390 5396 5404 5412 5418 5423 5427 5430 5434 5437 5441 5443 5446 5449 5452 5455 5457 5459 5461 5462 5463 5463 5463 5462
5380 5379 5376 5375 5373 5370 5366 5362 5357 5351 5344 5338 5332 5326 5322 5318 5317 5314 5312 5312 5311 5311 5314 5318 5323 5332 5341 5351 5360 5368 5377 5383 5391 5398 5406 5412 5417 5421 5425 5428 5430 5433 5437 5439 5441 5445 5447 5449 5451 5451 5452 5453 5453 5453
5370 5369 5368 5366 5363 5360 5357 5352 5346 5340 5333 5327 5322 5317 5314 5310 5307 5304 5302 5301 5301 5301 5305 5309 5314 5319 5328 5337 5347 5356 5364 5372 5381 5388 5395 5400 5406 5410 5414 5417 5421 5423 5425 5428 5431 5433 5436 5438 5439 5441 5442 5443 5444 5444
5360 5359 5359 5356 5353 5350 5346 5341 5335 5329 5322 5317 5313 5309 5306 5303 5299 5295 5292 5290 5290 5292 5296 5301 5306 5311 5318 5327 5337 5347 5355 5363 5370 5376 5382 5387 5392 5397 5401 5405 5409 5411 5414 5416 5419 5422 5424 5427 5429 5431 5432 5434 5435 5435
5352 5350 5349 5346 5343 5339 5335 5330 5324 5319 5313 5309 5305 5302 5300 5297 5292 5287 5285 5283 5283 5286 5290 5296 5299 5304 5310 5319 5328 5337 5344 5352 5358 5363 5369 5374 5379 5385 5390 5394 5397 5400 5403 5406 5409 5412 5415 5417 5420 5422 5424 5425 5426 5426
5343 5341 5338 5335 5333 5329 5325 5320 5315 5310 5305 5301 5299 5297 5295 5292 5287 5284 5281 5281 5282 5285 5288 5292 5295 5298 5304 5311 5319 5327 5334 5340 5346 5352 5359 5364 5369 5374 5378 5381 5385 5389 5392 5395 5399 5402 5405 5408 5410 5413 5415 5416 5417 5418
5332 5330 5328 5326 5323 5319 5314 5310 5305 5301 5298 5295 5294 5293 5291 5289 5285 5282 5281 5283 5285 5286 5289 5291 5293 5296 5300 5306 5311 5316 5323 5329 5337 5344 5349 5354 5360 5365 5369 5372 5376 5379 5383 5387 5390 5394 5397 5400 5403 5405 5406 5407 5408 5409